Terug naar catalogus

THORAD DELTA 1 DEB

ActiefLEO
NORAD 37148·DEBRIS·🇺🇸 United States

Gelanceerd Nov 15, 1974 vanaf Vandenberg Space Force Base

Loading…

Volgende Passages (komende 24 uur)

TLE

VersSource: Space-Track

Epoch: Sep 14, 2026, 02:57 UTC

1 37148U 74089FH  26257.12319848  .00014684  00000-0  48509-2 0  9990
2 37148 101.6960 122.6242 0016022  96.0334  54.8342 14.38080239809453

Volg THORAD DELTA 1 DEB in realtime met AllMySat

Download on the App Store